It's Monday,
June 24th, 2019
User not logged in
[Run Race Header Image][Run Race logo]
  
Race webcasting is attempted by race directors and their support staff. Please remember that conditions under which they're working may make it difficult to post timely webcast updates... your interest and patience is appreciated!
Race Information
Race Name:2nd Annual Indiana Trail 100
Location:Albion
State:Indiana, United States
 button: button: Webcast Autoplay
Event Information
Name of Event:100 Mile Trail
Distance:100.00
Measurement:Miles
Date:Saturday April 26th, 2014
button: Assign Numbers  
Checkpoint:SchIn5
Distance:80.68 Miles
Gun Start Time:Saturday April 26th, 2014 5:59:34.15 am
Calculate Chip Start Time:< not set >
Y or N... Calculate splits based upon participant chip start time?
Allow Early Chip Start Time:< not set >
Y or N... Allow participants a chip start time prior to gun start?
Pos Race
Number
NameAgeSexTimePace 
1141Shan Riggs35M13:37:27.310:07.9Sat Apr 26th, 2014 7:37:01 pm
2166Jim Trout44M13:56:13.710:21.9
314John Bertram51M13:59:59.610:24.7Sat Apr 26th, 2014 7:59:33 pm
434Vincent Corona30M14:16:54.210:37.3Sat Apr 26th, 2014 8:16:28 pm
5148Travis Shields37M14:21:50.610:40.9Sat Apr 26th, 2014 8:21:24 pm
6182Craig Wheeler52M14:38:00.010:52.9Sat Apr 26th, 2014 8:37:34 pm
7151Jen Skelly34F14:44:18.110:57.6Sat Apr 26th, 2014 8:43:52 pm
8158Paul Stofko38M14:56:41.711:06.9Sat Apr 26th, 2014 8:56:15 pm
941Paul Dott31M15:18:28.811:23.1Sat Apr 26th, 2014 9:18:02 pm
1026Jessica Campbell21F15:19:32.211:23.8Sat Apr 26th, 2014 9:19:06 pm
11149Todd Siebert32M15:20:45.511:24.7Sat Apr 26th, 2014 9:20:19 pm
12127Daniel Paige34M15:50:03.411:46.5Sat Apr 26th, 2014 9:49:37 pm
1320Erin Brady42F15:56:28.511:51.3Sat Apr 26th, 2014 9:56:02 pm
14140Kirk Ridenour54M16:15:13.112:05.2Sat Apr 26th, 2014 10:14:47 pm
15104David Mentjes44M16:21:28.812:09.9Sat Apr 26th, 2014 10:21:02 pm
1687Ryan "Stormy" Knight37M16:28:58.012:15.5Sat Apr 26th, 2014 10:28:32 pm
1779David E. Jackson36M16:31:54.712:17.7Sat Apr 26th, 2014 10:31:28 pm
1844Tanya Eggert44F16:41:19.012:24.7Sat Apr 26th, 2014 10:40:53 pm
1968Shawn Hawk49M16:53:40.812:33.9Sat Apr 26th, 2014 10:53:14 pm
2046Mike Else45M17:13:16.212:48.4Sat Apr 26th, 2014 11:12:50 pm
2124todd brown45M17:20:45.112:54.0Sat Apr 26th, 2014 11:20:19 pm
22113SIAMAK MOSTOUFI39M17:20:45.212:54.0Sat Apr 26th, 2014 11:20:19 pm
23162Mark Thill38M17:23:56.812:56.4Sat Apr 26th, 2014 11:23:30 pm
2428Tony Cesario50M17:28:07.012:59.5Sat Apr 26th, 2014 11:27:41 pm
25115Carolynn Nauta32F17:29:19.613:00.4Sat Apr 26th, 2014 11:28:53 pm
26183Anastasia Andrychowski34F17:38:27.813:07.2Sat Apr 26th, 2014 11:38:01 pm
2750Linda Keuneke50F17:40:35.013:08.7Sat Apr 26th, 2014 11:40:09 pm
28133Richard Plezia55M17:43:29.813:10.9Sat Apr 26th, 2014 11:43:03 pm
29134dave potter49M17:46:58.313:13.5Sat Apr 26th, 2014 11:46:32 pm
30181Rene Samano28M17:51:13.213:16.6Sat Apr 26th, 2014 11:50:47 pm
31114Larry Mullinnix49M17:57:14.013:21.1Sat Apr 26th, 2014 11:56:48 pm
32177Eric Fritz46M17:58:21.613:22.0Sat Apr 26th, 2014 11:57:55 pm
33116David Nelson26M17:59:48.313:23.0Sat Apr 26th, 2014 11:59:22 pm
3462Martin Guthrie47M18:01:10.513:24.0Sun Apr 27th, 2014 12:00:44 am
35123Reggie O'HARA45M18:02:35.813:25.1Sun Apr 27th, 2014 12:02:09 am
3640Noe j Dominguez45M18:04:19.413:26.4Sun Apr 27th, 2014 12:03:53 am
3754Tom Fifer51M18:05:37.113:27.4Sun Apr 27th, 2014 12:05:11 am
38125Jeff Oliver40M18:05:57.313:27.6Sun Apr 27th, 2014 12:05:31 am
39154Mike Smith56M18:06:47.613:28.2Sun Apr 27th, 2014 12:06:21 am
4036John Cushma40M18:26:41.013:43.0Sun Apr 27th, 2014 12:26:15 am
4142Michael Dowdell38M18:29:01.513:44.8Sun Apr 27th, 2014 12:28:35 am
4257Mark Gavorski48M18:33:52.013:48.4Sun Apr 27th, 2014 12:33:26 am
43103Chris McMahon54M18:41:38.313:54.1Sun Apr 27th, 2014 12:41:12 am
4472Rich Henderson58M18:47:58.313:58.8Sun Apr 27th, 2014 12:47:32 am
4563Jerret Halter32M19:01:19.714:08.8Sun Apr 27th, 2014 1:00:53 am
4673Jeff Hogan45M19:04:04.214:10.8Sun Apr 27th, 2014 1:03:38 am
4776Scott Hudson46M19:05:52.514:12.2Sun Apr 27th, 2014 1:05:26 am
4883Chris Junken35M19:07:04.614:13.1Sun Apr 27th, 2014 1:06:38 am
49108Joshua Mock32M19:10:50.114:15.9Sun Apr 27th, 2014 1:10:24 am
5017Andrew Borst43M19:12:58.714:17.4Sun Apr 27th, 2014 1:12:32 am
5191Bill Kulwicki55M19:13:16.814:17.7Sun Apr 27th, 2014 1:12:50 am
5256Helen Garen49F19:14:16.814:18.4Sun Apr 27th, 2014 1:13:50 am
53171Marci Wease37F19:15:09.514:19.1Sun Apr 27th, 2014 1:14:43 am
54156Phil Stapert47M19:19:48.514:22.5Sun Apr 27th, 2014 1:19:22 am
55126Julie Pagel29F19:30:21.314:30.4Sun Apr 27th, 2014 1:29:55 am
5621Bob Brashear55M19:32:57.614:32.3Sun Apr 27th, 2014 1:32:31 am
57107Kirk Misaka55M19:39:20.414:37.1Sun Apr 27th, 2014 1:38:54 am
588Brian Barger53M19:52:22.014:46.7Sun Apr 27th, 2014 1:51:56 am
5939Nathan DeWall34M19:59:28.014:52.0Sun Apr 27th, 2014 1:59:02 am
60130Alfredo ''Moose'' Pedro45M20:03:43.214:55.2Sun Apr 27th, 2014 2:03:17 am
6199Daniel Maddox38M20:07:33.914:58.0Sun Apr 27th, 2014 2:07:08 am
62159Steve Sunbury44M20:11:21.515:00.9Sun Apr 27th, 2014 2:10:55 am
6366Dick Canterbury66M20:11:29.215:01.0Sun Apr 27th, 2014 2:11:03 am
64174Randall Yost55M20:12:03.415:01.4Sun Apr 27th, 2014 2:11:37 am
65146Rob Schultz47M20:14:44.815:03.4Sun Apr 27th, 2014 2:14:18 am
66143Matthew Santner37M20:14:57.115:03.5Sun Apr 27th, 2014 2:14:31 am
6710Kathy Barton57F20:20:09.915:07.4Sun Apr 27th, 2014 2:19:44 am
68178Joe Cuthbertson39M20:20:10.815:07.4Sun Apr 27th, 2014 2:19:44 am
6925Aaron Butler32M20:23:31.715:09.9Sun Apr 27th, 2014 2:23:05 am
70121Mark Norfleet57M20:35:53.115:19.1Sun Apr 27th, 2014 2:35:27 am
715LEE ANDERSON56M20:55:16.215:33.5Sun Apr 27th, 2014 2:54:50 am
7252Jamie Farley35M20:58:38.915:36.0Sun Apr 27th, 2014 2:58:13 am
732Kurt Adams35M20:59:31.715:36.7Sun Apr 27th, 2014 2:59:05 am
7416toni bohannon46F21:22:14.115:53.6Sun Apr 27th, 2014 3:21:48 am
75169Chris Walker34M21:27:35.715:57.6Sun Apr 27th, 2014 3:27:09 am
7678Lauren Idzik43F21:28:36.615:58.3Sun Apr 27th, 2014 3:28:10 am
7786John Klarquist49M21:28:44.115:58.4Sun Apr 27th, 2014 3:28:18 am
7848Karen Erba44F21:30:08.215:59.4Sun Apr 27th, 2014 3:29:42 am
7974Alex "ACE" Honigford33M21:32:01.716:00.9Sun Apr 27th, 2014 3:31:35 am
80105Craig Meseko29M21:32:24.416:01.1Sun Apr 27th, 2014 3:31:58 am
8164Cindylee Torres54F21:34:42.116:02.8Sun Apr 27th, 2014 3:34:16 am
82124Ethan Olds24M21:37:21.116:04.8Sun Apr 27th, 2014 3:36:55 am
8331Mark Coates33M21:37:24.816:04.9Sun Apr 27th, 2014 3:36:58 am
846Ric Angara43M21:38:02.116:05.3Sun Apr 27th, 2014 3:37:36 am
8593John Leighton53M21:40:15.416:07.0Sun Apr 27th, 2014 3:39:49 am
8653Ramon Ferrer Jr34M21:41:19.116:07.8Sun Apr 27th, 2014 3:40:53 am
8733Aaron Conner41M21:51:34.016:15.4Sun Apr 27th, 2014 3:51:08 am
88167Ali Turfe50M21:52:04.216:15.8Sun Apr 27th, 2014 3:51:38 am
8969Kent Heck52M21:52:36.316:16.2Sun Apr 27th, 2014 3:52:10 am
90101Sondra Marker50F22:00:04.516:21.7Sun Apr 27th, 2014 3:59:38 am
91120Caleb Nolen28M22:09:04.516:28.4Sun Apr 27th, 2014 4:08:38 am
9282Juan Juarez42M22:09:55.416:29.0Sun Apr 27th, 2014 4:09:29 am
9370Mike Heider54M22:09:59.616:29.1Sun Apr 27th, 2014 4:09:33 am
949Crystal Barton38F22:22:35.416:38.5Sun Apr 27th, 2014 4:22:09 am
9512Richard Barton61M22:23:01.916:38.8Sun Apr 27th, 2014 4:22:36 am
9638James Davidson51M22:23:19.916:39.0Sun Apr 27th, 2014 4:22:54 am
97150Robert Siscoe59M22:25:36.516:40.7Sun Apr 27th, 2014 4:25:10 am
983Justin Alford40M22:29:48.916:43.8Sun Apr 27th, 2014 4:29:23 am
9947David Englund46M22:48:40.616:57.9Sun Apr 27th, 2014 4:48:14 am
100137Jamie Quarandillo40F22:58:41.517:05.3Sun Apr 27th, 2014 4:58:15 am
101122Terry Null55M23:01:40.017:07.5Sun Apr 27th, 2014 5:01:14 am
102138Frank Rampton57M23:06:33.017:11.1Sun Apr 27th, 2014 5:06:07 am
103173Michael Wolff41M23:09:41.617:13.5Sun Apr 27th, 2014 5:09:15 am
104176Stan Zygmunt51M23:10:26.917:14.0Sun Apr 27th, 2014 5:10:01 am
105111James Cooper44M23:27:22.117:26.6Sun Apr 27th, 2014 5:26:56 am
106172Kenneth Westerman55M23:36:57.617:33.8Sun Apr 27th, 2014 5:36:31 am

Event Information
Name of Event:50 Mile Trail
Distance:50.00
Measurement:Miles
Date:Saturday April 26th, 2014
button: Assign Numbers 
2004-2019 : All rights reserved
Terms and Conditions